DELTA 1 DEB, 29185

Orbit data source: Space-Track

DELTA 1 DEB, 29185 is space debris in LEO originally from a launch on Thu, 11 Jan 1968 UTC launched from the Air Force Western Test Range (AFWTR). Debris objects in space refer to the collection of defunct objects orbiting the Earth. Examples of debris include non-operational satellites, rocket bodies, and fragments generated from explosions, collisions, or faulty payload assembly.

Loading next visibility...
Identifier
29185, 1968-002J
Orbit
LEO
Last TLE update
1 week ago
Origin
Manufacturer
Unknown
Mission
Spacecraft
Bus & Motor
Unknown
Mass
Unknown
Launch date (UTC)
1968-01-11 (57 years ago)
Launch vehicle
Unknown
Launch site
Air Force Western Test Range (AFWTR)
Object type
Payload
Rocket body
Debris
Shape & HBR
Unknown
Radar Cross Section
Small (<0.1 m²)

Expand to show TLE details & history

TLE from 1 week ago
0 DELTA 1 DEB
1 29185U 68002J   25177.24027416  .00000687  00000-0  16326-2 0  9990
2 29185 105.7856 198.2350 0250015 194.1610 165.2378 13.19767472420142
Epoch: 2025-06-26T05:45Z
TLE epoch observation values (Epoch: 2025-06-26T05:45:59.687Z)
Latitude
-0°
Longitude
-162.87403°
Altitude
1,371.274 km
Speed
7.086 km/s
True Right ascension
13h 12m 56s
True Declination
0° 00' 00"
Sunlit
Object was in daylight at epoch
Visualization orbit readout
Latitude
68.83749°
Longitude
74.1658°
Altitude
1,152.164 km
Speed
7.305 km/s
Apparent Right ascension
05h 17m 05s
Apparent Declination
21° 02' 33"
Sunlit
Object is in daylight
Visualization observer readout
Local Sidereal Time
17:25:58
Azimuth
2.372° NNE
Elevation
-29.006°
Doppler factor
1
Orbital elements
Apogee altitude
1,372.395 km
Perigee altitude
994.298 km
Semi-major axis
7,561.483 km
Eccentricity
0.025
Inclination
105.7856°
RAAN
198.235°
Arg. of periapsis
194.161°
True anomaly
Unknown
Mean anomaly
165.2378°
Eccentric anomaly
Unknown
Mean motion
3.3009 °/min
Orbital period
109.06 mins
BSTAR
0.0016326
Loading maneuver chart data...
Loading SW <> Apogee altitude chart data...
Loading historical data...
Loading historical data...
Loading historical data...
Loading historical data...
Loading historical data...
Loading historical data...
Loading historical data...

DELTA 1 DEB Visibility forecast

Observer location: undefined°, undefined°

Span
Click to sort rows by Start time (UTC) header in descending order
Start Az.
Max El. time (UTC)
Max El. Az.
Max El.
End time (UTC)
End Az.
11 mins2025-07-03 14:51:25.770Z26.384° NE2025-07-03 14:56:25.770Z124.811° SE44.501°2025-07-03 15:02:25.770Z199.461° SSW
7 mins2025-07-03 16:39:25.770Z343.053° N2025-07-03 16:42:25.770Z310.022° NW19.003°2025-07-03 16:46:25.770Z269.028° W
9 mins2025-07-03 23:31:25.770Z90.688° ESE2025-07-03 23:35:25.770Z54.277° ENE21.97°2025-07-03 23:40:25.770Z6.586° NNE
13 mins2025-07-04 01:15:25.770Z158.728° S2025-07-04 01:21:25.770Z205.895° SW44.751°2025-07-04 01:28:25.770Z335.739° NNW
7 mins2025-07-04 03:06:25.770Z239.864° WSW2025-07-04 03:09:25.770Z265.733° W15.749°2025-07-04 03:13:25.770Z297.911° NW
|